Weather in San Francisco

United States     37°45′33″N   122°26′49″W
temp.,
°C
wind,
m/s
gust,
m/s
humid.,
%
clouds,
%
prec.,
mm/h
press.,
hPa
HPBL,
m
23 january, sat
sat2301:00+10nne347767 0.8 1013222
04:00+9nne678056 1.4 1014377
07:00+8nne57810 0.0 1014423
10:00+9nne44770 0.0 1015384
13:00+10wnw23680 0.0 1014427
16:00+11wnw56700 0.0 1013279
19:00+10wnw35780 0.0 1014298
22:00+10wnw22790 0.0 101499
24 january, sun
sun2401:00+10nw22800 0.0 1014145
04:00+9wnw34840 0.0 1014253
07:00+9wnw578412 0.0 1014539
10:00+9wnw697433 0.0 1014739
13:00+9wnw3581100 0.7 1012499
16:00+11wsw5779100 2.6 1011761
19:00+9nw13176780 1.1 10111270
22:00+9nw13176177 3.3 10101187
25 january, mon
mon2501:00+7nnw10136961 0.1 1009972
04:00+9nw1420570 0.0 10111598
07:00+9nw1318556 0.0 10121449
10:00+9nw1216523 0.0 10121436
13:00+11nw1114480 0.0 10121588
16:00+10nw1215540 0.0 10111543
19:00+9nw1115560 0.0 10121236
22:00+9nw1115580 0.0 10141163
26 january, tue
tue2601:00+9nw1014520 0.0 1013890
04:00+8nw711540 0.0 1014845
07:00+8nnw35634 0.0 1015425
10:00+8ene12585 0.0 1016413
13:00+10ssw345882 0.0 1015683
16:00+10s896291 0.0 10131096
19:00+9sse91270100 0.6 1012873
22:00+9sse132081100 4.3 10091242
27 january, wed
wed2701:00+11s172588100 7.4 10061389
04:00+12s172489100 18.4 10031332
07:00+11ssw71183100 1.9 1008613
10:00+12s8117682 4.2 1009648
13:00+13s9127246 0.9 1008751
16:00+13s10157668 2.7 1007950
19:00+12s91482100 1.2 1007851
22:00+12s61075100 1.9 1008537